Regional Weather Roundup
Issued by NWS

Home | Current Version | Previous Version | Graphics & Text | Print | Product List | Glossary On
Versions: 1 2 3 4 5 6 7 8 9 10 11 12 13 14 15 16 17 18 19 20 21 22 23 24 25 26 27 28 29 30 31 32 33 34 35 36 37 38 39 40 41 42 43 44 45 46 47 48 49 50
000
ASUS44 KMEG 202110
RWRTN
TENNESSEE HOURLY STATE WEATHER ROUNDUP
NATIONAL WEATHER SERVICE MEMPHIS TN
300 PM CST MON NOV 20 2017

TNZ002-004-019-021-049-052-054-088>092-202200-
WEST TENNESSEE

CITY           SKY/WX    TMP DP  RH WIND       PRES   REMARKS
MEMPHIS INTL   PTSUNNY   55  26  32 S8        30.10F
NWS MEMPHIS      N/A     56 N/A N/A MISG        N/A
JACKSON        SUNNY     56  22  26 S9        30.10F
DYERSBURG      SUNNY     54  27  35 SE7       30.10F
SOMERVILLE     SUNNY     55  23  28 VRB6      30.09F
COVINGTON      SUNNY     55  25  30 S7        30.10F
UNION CITY     SUNNY     54  23  30 S10       30.09F
BOLIVAR        SUNNY     55  23  28 VRB3      30.10F
PARIS          SUNNY     54  23  30 S10       30.08F
HUNTINGDON     SUNNY     54  23  30 S7        30.09F
LEXINGTON      SUNNY     55  21  26 VRB6      30.10F
SELMER         SUNNY     55  23  28 CALM      30.10F
SAVANNAH       SUNNY     55  25  30 SW5       30.11F HAZE
$$

TNZ008-025-027-028-033-062-065-066-202200-
NORTH MIDDLE TENNESSEE

CITY           SKY/WX    TMP DP  RH WIND       PRES   REMARKS
NASHVILLE      PTSUNNY   54  22  28 SE7       30.13F
PORTLAND       SUNNY     50  23  34 SE5       30.11F
CLARKSVILLE    SUNNY     53  22  29 VRB5      30.10F
SMYRNA         SUNNY     54  22  28 S5        30.13F
COOKEVILLE     SUNNY     57  23  26 SW3       30.11F HAZE
GALLATIN       SUNNY     52  25  35 SE6       30.15F
CROSSVILLE     CLOUDY    52  19  27 VRB7      30.13S
$$

TNZ061-075-076-078-094-096-097-202200-
SOUTH MIDDLE TENNESSEE

CITY           SKY/WX    TMP DP  RH WIND       PRES   REMARKS
FAYETTEVILLE   SUNNY     57  21  24 VRB7      30.11F
TULLAHOMA      SUNNY     55  23  28 S5        30.11F
WINCHESTER     SUNNY     57  18  21 SE6       30.12F
MCMINNVILLE    SUNNY     57  25  28 W6        30.11F
COLUMBIA       SUNNY     55  19  24 S5        30.10F
SHELBYVILLE    SUNNY     55  23  28 S7        30.12F
$$

TNZ017-018-042-046-047-202200-
NORTHEAST TENNESSEE

CITY           SKY/WX    TMP DP  RH WIND       PRES   REMARKS
TRI CITIES     PTSUNNY   51  20  29 CALM      30.17F
ELIZABETHTON   SUNNY     54  16  22 CALM      30.17S
$$

TNZ012-013-036-069-073-074-202200-
CENTRAL EAST TENNESSEE

CITY           SKY/WX    TMP DP  RH WIND       PRES   REMARKS
KNOXVILLE      CLOUDY    51  31  46 VRB3      30.15F
OAK RIDGE      CLOUDY    52  27  38 SE3       30.17F
DOWNTOWN KNOXV SUNNY     52  27  37 SE6       30.17F
GATLINBURG     SUNNY     50  32  50 CALM      30.16F
MORRISTOWN     SUNNY     50  18  27 SE5       30.16F
JACKSBORO      SUNNY     52  25  35 S5        30.19F
$$

TNZ083-085-099-202200-
SOUTHEAST TENNESSEE

CITY           SKY/WX    TMP DP  RH WIND       PRES   REMARKS
CHATTANOOGA    CLOUDY    55  27  34 CALM      30.16F
$$

SKY/WX REPORTED AS FAIR MEANS FEW OR NO CLOUDS BELOW
12 THOUSAND FEET.




USA.gov is the U.S. government's official web portal to all federal, state and local government web resources and services.